,,Stat5,,Stat1,,Stat2,,Stat3,,Stat4,,Wind1,,Wind1,
time,status,PA1M_AVG,status,PR1M_SUM,status,RH1M_AVG,status,SR1M_AVG,status,TA1M_AVG,status,W1dAve1m,status,W1sAve1m,
2000-05-17, 00:00:01,VALID,917.643,VALID,0,VALID,95.1529,VALID,0,VALID,21.1481,VALID,86,VALID,0.850946,
2000-05-17, 00:01:01,VALID,917.628,VALID,0,VALID,95.3691,VALID,-0.0169808,VALID,21.1101,VALID,94,VALID,0.57463,
2000-05-17, 00:02:01,VALID,917.617,VALID,0,VALID,95.5382,VALID,0,VALID,21.0872,VALID,122,VALID,0.0246394,
2000-05-17, 00:03:00,VALID,917.612,VALID,0,VALID,95.617,VALID,0.0339617,VALID,21.0735,VALID,122,VALID,0.000390625,
2000-05-17, 00:04:01,VALID,917.584,VALID,0,VALID,95.6793,VALID,0,VALID,21.0708,VALID,124,VALID,0.000400641,
2000-05-17, 00:05:00,VALID,917.563,VALID,0,VALID,95.7277,VALID,0,VALID,21.0646,VALID,161,VALID,0.348958,
2000-05-17, 00:06:01,VALID,917.515,VALID,0,VALID,95.734,VALID,0,VALID,21.0581,VALID,122,VALID,0.290541,
2000-05-17, 00:07:00,VALID,917.487,VALID,0,VALID,95.7238,VALID,0,VALID,21.0487,VALID,121,VALID,0.2,
2000-05-17, 00:08:01,VALID,917.465,VALID,0,VALID,95.7671,VALID,0.0169808,VALID,21.0358,VALID,117,VALID,0,
2000-05-17, 00:09:00,VALID,917.429,VALID,0,VALID,95.7823,VALID,0.0339617,VALID,21.0253,VALID,190,VALID,0.132813,
2000-05-17, 00:10:00,VALID,917.411,VALID,0,VALID,95.8497,VALID,-0.0169808,VALID,20.993,VALID,164,VALID,0.250401,
2000-05-17, 00:11:00,VALID,917.386,VALID,0,VALID,95.9527,VALID,0,VALID,21.0002,VALID,142,VALID,0,
2000-05-17, 00:12:01,VALID,917.367,VALID,0,VALID,95.9629,VALID,0,VALID,20.987,VALID,142,VALID,0,
2000-05-17, 00:13:01,VALID,917.348,VALID,0,VALID,96.043,VALID,0,VALID,20.9873,VALID,147,VALID,0,
2000-05-17, 00:14:01,VALID,917.332,VALID,0,VALID,96.0328,VALID,0,VALID,20.9644,VALID,134,VALID,0.647266,
2000-05-17, 00:15:01,VALID,917.301,VALID,0,VALID,96.1257,VALID,0,VALID,20.9415,VALID,105,VALID,0.268429,
2000-05-17, 00:16:00,VALID,917.292,VALID,0,VALID,96.221,VALID,0,VALID,20.9453,VALID,124,VALID,0.0246711,
2000-05-17, 00:17:01,VALID,917.291,VALID,0,VALID,96.2757,VALID,-0.0339617,VALID,20.9289,VALID,255,VALID,0,
2000-05-17, 00:18:00,VALID,917.282,VALID,0,VALID,96.305,VALID,0,VALID,20.9291,VALID,250,VALID,0,
2000-05-17, 00:19:01,VALID,917.297,VALID,0,VALID,96.2541,VALID,0.0339617,VALID,20.9189,VALID,246,VALID,0,
2000-05-17, 00:20:01,VALID,917.295,VALID,0,VALID,96.2541,VALID,0,VALID,20.8998,VALID,230,VALID,0,
2000-05-17, 00:21:00,VALID,917.285,VALID,0,VALID,96.3571,VALID,0.0169808,VALID,20.8903,VALID,187,VALID,0,
2000-05-17, 00:22:01,VALID,917.27,VALID,0,VALID,96.4181,VALID,0,VALID,20.8739,VALID,124,VALID,0,
2000-05-17, 00:23:01,VALID,917.274,VALID,0,VALID,96.4359,VALID,0.0169808,VALID,20.8704,VALID,134,VALID,0,
2000-05-17, 00:24:00,VALID,917.285,VALID,0,VALID,96.4499,VALID,0,VALID,20.8777,VALID,202,VALID,0,
2000-05-17, 00:25:01,VALID,917.283,VALID,0,VALID,96.5339,VALID,0,VALID,20.8739,VALID,234,VALID,0,
2000-05-17, 00:26:01,VALID,917.27,VALID,0,VALID,96.6267,VALID,0,VALID,20.8836,VALID,261,VALID,0,
2000-05-17, 00:27:01,VALID,917.27,VALID,0,VALID,96.6954,VALID,0.0169808,VALID,20.8871,VALID,218,VALID,0.230564,
2000-05-17, 00:28:01,VALID,917.253,VALID,0,VALID,96.6674,VALID,-0.0169808,VALID,20.8801,VALID,173,VALID,0,
2000-05-17, 00:29:01,VALID,917.25,VALID,0,VALID,96.6343,VALID,-0.0169808,VALID,20.8973,VALID,78,VALID,0,
2000-05-17, 00:30:01,VALID,917.235,VALID,0,VALID,96.4843,VALID,0.0169808,VALID,20.8637,VALID,93,VALID,0,
2000-05-17, 00:31:01,VALID,917.228,VALID,0,VALID,96.5669,VALID,0,VALID,20.864,VALID,118,VALID,0,
2000-05-17, 00:32:01,VALID,917.218,VALID,0,VALID,96.6254,VALID,0,VALID,20.8677,VALID,102,VALID,0,
2000-05-17, 00:33:01,VALID,917.208,VALID,0,VALID,96.7106,VALID,0,VALID,20.8807,VALID,140,VALID,0,
2000-05-17, 00:34:01,VALID,917.186,VALID,0,VALID,96.7106,VALID,0.0169808,VALID,20.8804,VALID,98,VALID,0.316506,
2000-05-17, 00:35:01,VALID,917.175,VALID,0,VALID,96.7691,VALID,0,VALID,20.8839,VALID,82,VALID,0.336397,
2000-05-17, 00:36:01,VALID,917.162,VALID,0,VALID,96.7996,VALID,0,VALID,20.8971,VALID,103,VALID,0.436699,
2000-05-17, 00:37:01,VALID,917.128,VALID,0,VALID,96.834,VALID,0,VALID,20.91,VALID,95,VALID,1.09128,
2000-05-17, 00:38:01,VALID,917.127,VALID,0,VALID,96.8441,VALID,0,VALID,20.9186,VALID,103,VALID,0.618056,
2000-05-17, 00:39:01,VALID,917.115,VALID,0,VALID,96.8034,VALID,-0.0169808,VALID,20.945,VALID,100,VALID,0.632601,
2000-05-17, 00:40:01,VALID,917.128,VALID,0,VALID,96.7157,VALID,0.0169808,VALID,20.9614,VALID,115,VALID,0.770898,
2000-05-17, 00:41:01,VALID,917.107,VALID,0,VALID,96.5949,VALID,0.0339617,VALID,20.9582,VALID,85,VALID,0.660773,
2000-05-17, 00:42:01,VALID,917.098,VALID,0,VALID,96.5428,VALID,-0.0339617,VALID,20.9749,VALID,94,VALID,0.699958,
2000-05-17, 00:43:01,VALID,917.107,VALID,0,VALID,96.4334,VALID,-0.0169808,VALID,20.9744,VALID,193,VALID,0.210737,
2000-05-17, 00:44:00,VALID,917.087,VALID,0,VALID,96.3902,VALID,0,VALID,20.991,VALID,158,VALID,0.338341,
2000-05-17, 00:45:00,VALID,917.066,VALID,0,VALID,96.3825,VALID,-0.0169808,VALID,20.9843,VALID,115,VALID,0.304893,
2000-05-17, 00:46:00,VALID,917.032,VALID,0,VALID,96.3711,VALID,0,VALID,21.0037,VALID,119,VALID,0.143581,
2000-05-17, 00:47:00,VALID,916.984,VALID,0,VALID,96.2821,VALID,0.0169808,VALID,20.9975,VALID,86,VALID,0.515425,
2000-05-17, 00:48:00,VALID,916.962,VALID,0,VALID,96.2312,VALID,-0.0509425,VALID,21.0005,VALID,89,VALID,0.0462416,
2000-05-17, 00:49:00,VALID,916.953,VALID,0,VALID,96.0799,VALID,-0.0169808,VALID,20.994,VALID,123,VALID,0.442779,
2000-05-17, 00:50:00,VALID,916.94,VALID,0,VALID,96.1028,VALID,-0.0339617,VALID,20.9816,VALID,102,VALID,1.22866,
2000-05-17, 00:51:00,VALID,916.934,VALID,0,VALID,96.1969,VALID,-0.0169808,VALID,20.9649,VALID,97,VALID,0.702474,
2000-05-17, 00:52:00,VALID,916.938,VALID,0,VALID,96.1842,VALID,0,VALID,20.9813,VALID,101,VALID,0.57832,
2000-05-17, 00:53:00,VALID,916.916,VALID,0,VALID,96.1282,VALID,-0.0169808,VALID,20.9682,VALID,112,VALID,0.36859,
2000-05-17, 00:54:00,VALID,916.886,VALID,0,VALID,96.0583,VALID,-0.0339617,VALID,20.9652,VALID,280,VALID,0.0582031,
2000-05-17, 00:55:00,VALID,916.844,VALID,0,VALID,96.1155,VALID,-0.0169808,VALID,20.9649,VALID,100,VALID,0.444079,
2000-05-17, 00:56:00,VALID,916.805,VALID,0,VALID,96.0494,VALID,-0.0509425,VALID,20.9555,VALID,101,VALID,0.0777138,
2000-05-17, 00:57:00,VALID,916.776,VALID,0,VALID,96.0201,VALID,-0.0339617,VALID,20.9493,VALID,122,VALID,0.0299831,
2000-05-17, 00:58:00,VALID,916.761,VALID,0,VALID,95.9756,VALID,-0.0509425,VALID,20.9396,VALID,85,VALID,0,
2000-05-17, 00:59:00,VALID,916.774,VALID,0,VALID,95.9769,VALID,-0.0679233,VALID,20.9302,VALID,116,VALID,0.0855035,
2000-05-17, 01:00:00,VALID,916.768,VALID,0,VALID,96.0023,VALID,-0.0339617,VALID,20.9138,VALID,102,VALID,1.09058,
2000-05-17, 01:01:00,VALID,916.748,VALID,0,VALID,96.0443,VALID,-0.0509425,VALID,20.9103,VALID,101,VALID,0.835526,
2000-05-17, 01:02:00,VALID,916.725,VALID,0,VALID,96.0367,VALID,-0.0339617,VALID,20.9167,VALID,99,VALID,0.753551,
2000-05-17, 01:03:00,VALID,916.701,VALID,0,VALID,95.9845,VALID,-0.0339617,VALID,20.8941,VALID,95,VALID,1.28783,
2000-05-17, 01:04:00,VALID,916.675,VALID,0,VALID,95.9642,VALID,0.0169808,VALID,20.8779,VALID,97,VALID,1.12363,
2000-05-17, 01:05:00,VALID,916.65,VALID,0,VALID,95.9616,VALID,-0.0509425,VALID,20.8717,VALID,98,VALID,0.541941,
2000-05-17, 01:06:00,VALID,916.633,VALID,0,VALID,95.9337,VALID,-0.0339617,VALID,20.8489,VALID,109,VALID,0.808183,
2000-05-17, 01:07:00,VALID,916.604,VALID,0,VALID,95.9858,VALID,-0.0339617,VALID,20.8228,VALID,101,VALID,0.799279,
2000-05-17, 01:08:00,VALID,916.577,VALID,0,VALID,95.9871,VALID,-0.0339617,VALID,20.8101,VALID,104,VALID,0.48097,
2000-05-17, 01:09:00,VALID,916.544,VALID,0,VALID,96.0252,VALID,-0.0169808,VALID,20.8039,VALID,109,VALID,0.0750411,
2000-05-17, 01:10:00,VALID,916.518,VALID,0,VALID,96.0278,VALID,-0.0509425,VALID,20.784,VALID,107,VALID,0,
2000-05-17, 01:11:00,VALID,916.491,VALID,0,VALID,96.0227,VALID,-0.0339617,VALID,20.781,VALID,99,VALID,0.358203,
2000-05-17, 01:12:00,VALID,916.466,VALID,0,VALID,95.9108,VALID,-0.0339617,VALID,20.7517,VALID,84,VALID,1.81317,
2000-05-17, 01:13:00,VALID,916.442,VALID,0,VALID,95.9235,VALID,-0.0169808,VALID,20.7358,VALID,96,VALID,1.48247,
2000-05-17, 01:14:00,VALID,916.427,VALID,0,VALID,96.1053,VALID,-0.0339617,VALID,20.7266,VALID,85,VALID,1.22841,
2000-05-17, 01:15:00,VALID,916.421,VALID,0,VALID,96.2032,VALID,-0.0339617,VALID,20.7064,VALID,112,VALID,0.472005,
2000-05-17, 01:16:00,VALID,916.403,VALID,0,VALID,96.146,VALID,-0.0169808,VALID,20.7067,VALID,116,VALID,0.134766,
2000-05-17, 01:17:00,VALID,916.372,VALID,0,VALID,95.9883,VALID,-0.0169808,VALID,20.7005,VALID,99,VALID,0.792763,
2000-05-17, 01:18:00,VALID,916.325,VALID,0,VALID,95.9566,VALID,-0.0339617,VALID,20.6774,VALID,61,VALID,0.679911,
2000-05-17, 01:19:00,VALID,916.3,VALID,0,VALID,96.0138,VALID,-0.0339617,VALID,20.6712,VALID,95,VALID,0.579127,
2000-05-17, 01:20:00,VALID,916.263,VALID,0,VALID,96.0303,VALID,-0.0339617,VALID,20.6717,VALID,70,VALID,0.479167,
2000-05-17, 01:21:00,VALID,916.249,VALID,0,VALID,96.1524,VALID,-0.0339617,VALID,20.6652,VALID,53,VALID,0.446791,
2000-05-17, 01:22:00,VALID,916.213,VALID,0,VALID,96.1867,VALID,0,VALID,20.6585,VALID,62,VALID,0.0402961,
2000-05-17, 01:23:00,VALID,916.181,VALID,0,VALID,96.2096,VALID,0,VALID,20.6515,VALID,92,VALID,0.502262,
2000-05-17, 01:24:00,VALID,916.149,VALID,0,VALID,96.2567,VALID,-0.0339617,VALID,20.6547,VALID,87,VALID,0.837843,
2000-05-17, 01:25:00,VALID,916.119,VALID,0,VALID,96.3558,VALID,-0.0509425,VALID,20.6485,VALID,88,VALID,0.477163,
2000-05-17, 01:26:00,VALID,916.097,VALID,0,VALID,96.4232,VALID,-0.0339617,VALID,20.6326,VALID,84,VALID,0.0629006,
2000-05-17, 01:27:00,VALID,916.076,VALID,0,VALID,96.4601,VALID,-0.0169808,VALID,20.6423,VALID,91,VALID,0,
2000-05-17, 01:28:00,VALID,916.033,VALID,0,VALID,96.4805,VALID,0,VALID,20.6388,VALID,101,VALID,0.382031,
2000-05-17, 01:29:00,VALID,916.011,VALID,0,VALID,96.3253,VALID,0,VALID,20.6324,VALID,87,VALID,0.535846,
2000-05-17, 01:30:00,VALID,916,VALID,0,VALID,96.4919,VALID,0,VALID,20.6197,VALID,55,VALID,0.804883,
2000-05-17, 01:31:00,VALID,916.002,VALID,0,VALID,96.6966,VALID,-0.0169808,VALID,20.606,VALID,59,VALID,0.684495,
2000-05-17, 01:32:00,VALID,916.022,VALID,0,VALID,96.7411,VALID,-0.0339617,VALID,20.5772,VALID,66,VALID,0.342928,
2000-05-17, 01:33:00,VALID,916.036,VALID,0,VALID,96.7869,VALID,-0.0339617,VALID,20.5707,VALID,87,VALID,0.502262,
2000-05-17, 01:34:00,VALID,916.05,VALID,0,VALID,96.8518,VALID,-0.0169808,VALID,20.5643,VALID,95,VALID,0.61875,
2000-05-17, 01:35:00,VALID,916.028,VALID,0,VALID,96.9293,VALID,-0.0169808,VALID,20.5712,VALID,87,VALID,0.861719,
2000-05-17, 01:36:00,VALID,916.012,VALID,0,VALID,96.9535,VALID,0,VALID,20.5879,VALID,86,VALID,1.05329,
2000-05-17, 01:37:00,VALID,916.004,VALID,0,VALID,96.9077,VALID,-0.0169808,VALID,20.5809,VALID,94,VALID,0.895354,
2000-05-17, 01:38:00,VALID,916.01,VALID,0,VALID,96.8403,VALID,-0.0339617,VALID,20.5712,VALID,65,VALID,1.13421,
2000-05-17, 01:39:00,VALID,916.009,VALID,0,VALID,96.7717,VALID,-0.0169808,VALID,20.568,VALID,59,VALID,0.401442,
2000-05-17, 01:40:00,VALID,915.994,VALID,0,VALID,96.7767,VALID,-0.0339617,VALID,20.565,VALID,45,VALID,0.0432855,
2000-05-17, 01:41:00,VALID,915.986,VALID,0,VALID,96.7653,VALID,0,VALID,20.5621,VALID,70,VALID,0.399038,
2000-05-17, 01:42:00,VALID,915.958,VALID,0,VALID,96.7411,VALID,-0.0339617,VALID,20.5322,VALID,105,VALID,0.355469,
2000-05-17, 01:43:00,VALID,915.932,VALID,0,VALID,96.7182,VALID,-0.0169808,VALID,20.5365,VALID,104,VALID,0.679905,
2000-05-17, 01:44:00,VALID,915.93,VALID,0,VALID,96.6305,VALID,-0.0169808,VALID,20.5066,VALID,83,VALID,0.933789,
2000-05-17, 01:45:00,VALID,915.935,VALID,0,VALID,96.6178,VALID,-0.0509425,VALID,20.5007,VALID,81,VALID,1.13471,
2000-05-17, 01:46:00,VALID,915.942,VALID,0,VALID,96.5924,VALID,0,VALID,20.4716,VALID,47,VALID,0.71234,
2000-05-17, 01:47:00,VALID,915.943,VALID,0,VALID,96.5911,VALID,-0.0339617,VALID,20.4455,VALID,60,VALID,0.409128,
2000-05-17, 01:48:00,VALID,915.907,VALID,0,VALID,96.6826,VALID,0,VALID,20.4492,VALID,80,VALID,0.52763,
2000-05-17, 01:49:00,VALID,915.864,VALID,0,VALID,96.7043,VALID,-0.0509425,VALID,20.4428,VALID,88,VALID,0.920673,
2000-05-17, 01:50:00,VALID,915.818,VALID,0,VALID,96.7488,VALID,-0.0169808,VALID,20.4363,VALID,84,VALID,1.29666,
2000-05-17, 01:51:00,VALID,915.779,VALID,0,VALID,96.6992,VALID,0,VALID,20.4162,VALID,88,VALID,1.15859,
2000-05-17, 01:52:00,VALID,915.763,VALID,0,VALID,96.661,VALID,-0.0339617,VALID,20.4035,VALID,85,VALID,1.55148,
2000-05-17, 01:53:00,VALID,915.753,VALID,0,VALID,96.6178,VALID,0.0169808,VALID,20.4032,VALID,89,VALID,1.75946,
2000-05-17, 01:54:00,VALID,915.741,VALID,0,VALID,96.8162,VALID,-0.0169808,VALID,20.4196,VALID,84,VALID,1.27872,
2000-05-17, 01:55:00,VALID,915.745,VALID,0,VALID,96.8149,VALID,-0.0169808,VALID,20.4259,VALID,90,VALID,0.858373,
2000-05-17, 01:56:00,VALID,915.723,VALID,0,VALID,96.5428,VALID,-0.101885,VALID,20.4048,VALID,90,VALID,1.04573,
2000-05-17, 01:57:00,VALID,915.724,VALID,0,VALID,96.4868,VALID,-0.118866,VALID,20.3722,VALID,70,VALID,0.989183,
2000-05-17, 01:58:00,VALID,915.707,VALID,0,VALID,96.661,VALID,-0.0849042,VALID,20.3725,VALID,75,VALID,0.847656,
2000-05-17, 01:59:00,VALID,915.702,VALID,0,VALID,96.7068,VALID,-0.101885,VALID,20.366,VALID,88,VALID,1.03103,
2000-05-17, 02:00:00,VALID,915.682,VALID,0,VALID,96.6483,VALID,-0.101885,VALID,20.376,VALID,89,VALID,0.953758,
2000-05-17, 02:01:00,VALID,915.667,VALID,0,VALID,96.4627,VALID,-0.118866,VALID,20.3824,VALID,87,VALID,0.90293,
2000-05-17, 02:02:00,VALID,915.665,VALID,0,VALID,96.2541,VALID,-0.101885,VALID,20.3628,VALID,72,VALID,0.578947,
2000-05-17, 02:03:00,VALID,915.647,VALID,0,VALID,96.3914,VALID,-0.101885,VALID,20.3595,VALID,74,VALID,0.734375,
2000-05-17, 02:04:00,VALID,915.625,VALID,0,VALID,96.5148,VALID,-0.101885,VALID,20.3601,VALID,90,VALID,0.642027,
2000-05-17, 02:05:00,VALID,915.617,VALID,0,VALID,96.4283,VALID,-0.118866,VALID,20.3434,VALID,52,VALID,0.308699,
2000-05-17, 02:06:00,VALID,915.617,VALID,0,VALID,96.4538,VALID,-0.101885,VALID,20.3407,VALID,51,VALID,0.196752,
2000-05-17, 02:07:00,VALID,915.616,VALID,0,VALID,96.4868,VALID,-0.101885,VALID,20.3372,VALID,66,VALID,0.0329392,
2000-05-17, 02:08:00,VALID,915.592,VALID,0,VALID,96.2388,VALID,-0.0509425,VALID,20.3197,VALID,88,VALID,0.0292468,
2000-05-17, 02:09:00,VALID,915.561,VALID,0,VALID,96.2528,VALID,0.0339617,VALID,20.2966,VALID,93,VALID,0.557644,
2000-05-17, 02:10:00,VALID,915.513,VALID,0,VALID,96.2643,VALID,0,VALID,20.2546,VALID,92,VALID,0.34185,
2000-05-17, 02:11:00,VALID,915.492,VALID,0,VALID,96.2134,VALID,0,VALID,20.2223,VALID,92,VALID,0.426258,
2000-05-17, 02:12:00,VALID,915.486,VALID,0,VALID,96.0761,VALID,0.0169808,VALID,20.1706,VALID,88,VALID,0.601345,
2000-05-17, 02:13:00,VALID,915.487,VALID,0,VALID,96.3177,VALID,0.0169808,VALID,20.1351,VALID,91,VALID,0.815625,
2000-05-17, 02:14:00,VALID,915.497,VALID,0,VALID,96.7856,VALID,-0.0169808,VALID,20.1291,VALID,95,VALID,0.920473,
2000-05-17, 02:15:00,VALID,915.507,VALID,0,VALID,97.0908,VALID,0,VALID,20.1421,VALID,93,VALID,1.07656,
2000-05-17, 02:16:00,VALID,915.515,VALID,0,VALID,97.2434,VALID,0,VALID,20.1676,VALID,87,VALID,0.735609,
2000-05-17, 02:17:00,VALID,915.511,VALID,0,VALID,97.2027,VALID,-0.0169808,VALID,20.1706,VALID,102,VALID,0.738898,
2000-05-17, 02:18:00,VALID,915.496,VALID,0,VALID,96.9637,VALID,0.0169808,VALID,20.1378,VALID,96,VALID,1.09502,
2000-05-17, 02:19:00,VALID,915.47,VALID,0,VALID,96.9649,VALID,0,VALID,20.1421,VALID,92,VALID,1.30586,
2000-05-17, 02:20:00,VALID,915.456,VALID,0,VALID,96.9624,VALID,0,VALID,20.1256,VALID,94,VALID,0.983507,
2000-05-17, 02:21:00,VALID,915.464,VALID,0,VALID,96.9573,VALID,0,VALID,20.1028,VALID,90,VALID,1.17589,
2000-05-17, 02:22:00,VALID,915.491,VALID,0,VALID,96.9955,VALID,0.0169808,VALID,20.113,VALID,90,VALID,0.980469,
2000-05-17, 02:23:00,VALID,915.498,VALID,0,VALID,97.1976,VALID,0,VALID,20.1157,VALID,81,VALID,1.05019,
2000-05-17, 02:24:00,VALID,915.519,VALID,0,VALID,97.2739,VALID,0,VALID,20.1358,VALID,83,VALID,0.568873,
2000-05-17, 02:25:00,VALID,915.5,VALID,0,VALID,97.2129,VALID,0,VALID,20.1194,VALID,87,VALID,0.319336,
2000-05-17, 02:26:00,VALID,915.5,VALID,0,VALID,97.012,VALID,0.0169808,VALID,20.1003,VALID,107,VALID,0.498561,
2000-05-17, 02:27:00,VALID,915.47,VALID,0,VALID,96.9331,VALID,0,VALID,20.0578,VALID,91,VALID,0.681127,
2000-05-17, 02:28:00,VALID,915.478,VALID,0,VALID,96.9331,VALID,0.0169808,VALID,20.0394,VALID,82,VALID,0.717949,
2000-05-17, 02:29:00,VALID,915.477,VALID,0,VALID,97.19,VALID,0,VALID,20.022,VALID,84,VALID,0.765625,
2000-05-17, 02:30:00,VALID,915.502,VALID,0,VALID,97.0972,VALID,0.0169808,VALID,20.0004,VALID,85,VALID,0.583265,
2000-05-17, 02:31:00,VALID,915.525,VALID,0,VALID,97.0425,VALID,0,VALID,19.9681,VALID,85,VALID,0.614515,
2000-05-17, 02:32:00,VALID,915.524,VALID,0,VALID,96.9827,VALID,0,VALID,19.9291,VALID,85,VALID,0.302344,
2000-05-17, 02:33:00,VALID,915.502,VALID,0,VALID,96.984,VALID,0.0169808,VALID,19.8903,VALID,105,VALID,0.38058,
2000-05-17, 02:34:00,VALID,915.491,VALID,0,VALID,97.3223,VALID,0,VALID,19.903,VALID,84,VALID,0.605574,
2000-05-17, 02:35:00,VALID,915.471,VALID,0,VALID,97.6147,VALID,0,VALID,19.9552,VALID,68,VALID,0.861637,
2000-05-17, 02:36:00,VALID,915.455,VALID,0,VALID,97.5041,VALID,0,VALID,19.9549,VALID,81,VALID,0.600694,
2000-05-17, 02:37:00,VALID,915.447,VALID,0,VALID,97.2536,VALID,0,VALID,19.9261,VALID,96,VALID,0.561849,
2000-05-17, 02:38:00,VALID,915.424,VALID,0,VALID,97.0387,VALID,0,VALID,19.8839,VALID,97,VALID,0.641653,
2000-05-17, 02:39:00,VALID,915.435,VALID,0,VALID,97.129,VALID,0,VALID,19.8709,VALID,92,VALID,0.651563,
2000-05-17, 02:40:00,VALID,915.463,VALID,0,VALID,97.4062,VALID,0,VALID,19.8844,VALID,90,VALID,0.684696,
2000-05-17, 02:41:00,VALID,915.501,VALID,0,VALID,97.3388,VALID,0,VALID,19.858,VALID,97,VALID,0.647352,
2000-05-17, 02:42:00,VALID,915.52,VALID,0,VALID,97.3808,VALID,-0.0169808,VALID,19.8488,VALID,88,VALID,0.811022,
2000-05-17, 02:43:00,VALID,915.514,VALID,0,VALID,97.3795,VALID,-0.0339617,VALID,19.8289,VALID,96,VALID,0.747327,
2000-05-17, 02:44:00,VALID,915.509,VALID,0,VALID,97.4303,VALID,-0.0169808,VALID,19.8289,VALID,92,VALID,0.847656,
2000-05-17, 02:45:00,VALID,915.509,VALID,0,VALID,97.4011,VALID,0,VALID,19.813,VALID,97,VALID,0.842226,
2000-05-17, 02:46:00,VALID,915.497,VALID,0,VALID,97.4647,VALID,0,VALID,19.7937,VALID,101,VALID,0.800681,
2000-05-17, 02:47:00,VALID,915.518,VALID,0,VALID,97.4812,VALID,-0.0339617,VALID,19.7778,VALID,96,VALID,0.589944,
2000-05-17, 02:48:00,VALID,915.55,VALID,0,VALID,97.6351,VALID,0,VALID,19.7872,VALID,95,VALID,0.526816,
2000-05-17, 02:49:00,VALID,915.553,VALID,0,VALID,97.5995,VALID,0,VALID,19.7713,VALID,97,VALID,0.759766,
2000-05-17, 02:50:00,VALID,915.555,VALID,0,VALID,97.6351,VALID,0,VALID,19.7519,VALID,92,VALID,0.932675,
2000-05-17, 02:51:00,VALID,915.529,VALID,0,VALID,97.7546,VALID,0,VALID,19.7517,VALID,86,VALID,0.900391,
2000-05-17, 02:52:00,VALID,915.531,VALID,0,VALID,97.9174,VALID,0,VALID,19.7646,VALID,79,VALID,1.00962,
2000-05-17, 02:53:00,VALID,915.526,VALID,0,VALID,98.0979,VALID,0,VALID,19.8133,VALID,90,VALID,0.868215,
2000-05-17, 02:54:00,VALID,915.523,VALID,0,VALID,98.2137,VALID,-0.0169808,VALID,19.868,VALID,85,VALID,1.02775,
2000-05-17, 02:55:00,VALID,915.535,VALID,0,VALID,98.1653,VALID,-0.0339617,VALID,19.8941,VALID,83,VALID,0.712891,
2000-05-17, 02:56:00,VALID,915.522,VALID,0,VALID,98.014,VALID,-0.0169808,VALID,19.9169,VALID,83,VALID,0.776367,
2000-05-17, 02:57:00,VALID,915.522,VALID,0,VALID,97.8729,VALID,-0.0169808,VALID,19.9037,VALID,79,VALID,0.74399,
2000-05-17, 02:58:00,VALID,915.536,VALID,0,VALID,97.8729,VALID,0,VALID,19.9298,VALID,83,VALID,0.718544,
2000-05-17, 02:59:00,VALID,915.531,VALID,0,VALID,97.7686,VALID,-0.0169808,VALID,19.9199,VALID,91,VALID,0.532252,
2000-05-17, 03:00:00,VALID,915.536,VALID,0,VALID,97.6007,VALID,-0.0169808,VALID,19.9102,VALID,81,VALID,0.703325,
2000-05-17, 03:01:00,VALID,915.535,VALID,0,VALID,97.7139,VALID,0,VALID,19.9196,VALID,79,VALID,0.519215,
2000-05-17, 03:02:00,VALID,915.522,VALID,0,VALID,97.7368,VALID,-0.0169808,VALID,19.9264,VALID,87,VALID,0.711939,
2000-05-17, 03:03:00,VALID,915.507,VALID,0,VALID,97.7343,VALID,0,VALID,19.936,VALID,84,VALID,0.698785,
2000-05-17, 03:04:00,VALID,915.5,VALID,0,VALID,97.5499,VALID,0.0169808,VALID,19.9003,VALID,89,VALID,0.659288,
2000-05-17, 03:05:00,VALID,915.483,VALID,0,VALID,97.452,VALID,0,VALID,19.8781,VALID,82,VALID,0.787305,
2000-05-17, 03:06:00,VALID,915.483,VALID,0,VALID,97.5295,VALID,0,VALID,19.8744,VALID,77,VALID,0.690667,
2000-05-17, 03:07:00,VALID,915.48,VALID,0,VALID,97.6414,VALID,-0.0169808,VALID,19.8978,VALID,77,VALID,0.766026,
2000-05-17, 03:08:00,VALID,915.476,VALID,0,VALID,97.7902,VALID,-0.0339617,VALID,19.9199,VALID,79,VALID,0.798314,
2000-05-17, 03:09:00,VALID,915.467,VALID,0,VALID,97.7991,VALID,0,VALID,19.9423,VALID,79,VALID,0.671494,
2000-05-17, 03:10:00,VALID,915.489,VALID,0,VALID,97.6211,VALID,0,VALID,19.9425,VALID,91,VALID,0.73738,
2000-05-17, 03:11:00,VALID,915.504,VALID,0,VALID,97.5473,VALID,0,VALID,19.9557,VALID,85,VALID,0.64527,
2000-05-17, 03:12:00,VALID,915.516,VALID,0,VALID,97.2332,VALID,0.0169808,VALID,19.9102,VALID,62,VALID,0.42207,
2000-05-17, 03:13:00,VALID,915.525,VALID,0,VALID,97.1506,VALID,-0.0169808,VALID,19.8975,VALID,85,VALID,0.55008,
2000-05-17, 03:14:00,VALID,915.519,VALID,0,VALID,96.9064,VALID,-0.0169808,VALID,19.8488,VALID,84,VALID,0.703947,
2000-05-17, 03:15:00,VALID,915.525,VALID,0,VALID,97.2256,VALID,-0.0509425,VALID,19.8714,VALID,83,VALID,0.774071,
2000-05-17, 03:16:00,VALID,915.535,VALID,0,VALID,97.279,VALID,-0.0509425,VALID,19.8814,VALID,85,VALID,0.767228,
2000-05-17, 03:17:00,VALID,915.551,VALID,0,VALID,97.0247,VALID,-0.0509425,VALID,19.8685,VALID,80,VALID,0.558824,
2000-05-17, 03:18:00,VALID,915.569,VALID,0,VALID,97.0578,VALID,-0.0339617,VALID,19.8754,VALID,70,VALID,0.705128,
2000-05-17, 03:19:00,VALID,915.565,VALID,0,VALID,97.457,VALID,0,VALID,19.9132,VALID,82,VALID,0.740132,
2000-05-17, 03:20:00,VALID,915.549,VALID,0,VALID,97.335,VALID,-0.0169808,VALID,19.9167,VALID,104,VALID,0.365451,
2000-05-17, 03:21:00,VALID,915.553,VALID,0,VALID,97.1124,VALID,0,VALID,19.8906,VALID,97,VALID,0.361486,
2000-05-17, 03:22:00,VALID,915.545,VALID,0,VALID,96.8378,VALID,-0.0849042,VALID,19.8625,VALID,103,VALID,0.266016,
2000-05-17, 03:23:00,VALID,915.535,VALID,0,VALID,97.0285,VALID,0,VALID,19.8555,VALID,103,VALID,0,
2000-05-17, 03:24:00,VALID,915.527,VALID,0,VALID,97.1086,VALID,0.0339617,VALID,19.8421,VALID,99,VALID,0.073902,
2000-05-17, 03:25:00,VALID,915.538,VALID,0,VALID,97.2269,VALID,0.0339617,VALID,19.8327,VALID,83,VALID,0.68149,
2000-05-17, 03:26:00,VALID,915.567,VALID,0,VALID,97.3833,VALID,0.0339617,VALID,19.8518,VALID,80,VALID,1.0012,
2000-05-17, 03:27:00,VALID,915.586,VALID,0,VALID,97.5321,VALID,0.0339617,VALID,19.8677,VALID,82,VALID,1.07977,
2000-05-17, 03:28:00,VALID,915.584,VALID,0,VALID,97.4952,VALID,0,VALID,19.8968,VALID,88,VALID,0.849451,
2000-05-17, 03:29:00,VALID,915.578,VALID,0,VALID,97.3922,VALID,0.0509425,VALID,19.9194,VALID,83,VALID,1.10677,
2000-05-17, 03:30:00,VALID,915.583,VALID,0,VALID,97.1188,VALID,0.0169808,VALID,19.903,VALID,81,VALID,0.812078,
2000-05-17, 03:31:00,VALID,915.596,VALID,0,VALID,96.53,VALID,0.0679233,VALID,19.865,VALID,66,VALID,0.766047,
2000-05-17, 03:32:00,VALID,915.638,VALID,0,VALID,97.1035,VALID,0.0849042,VALID,19.8868,VALID,51,VALID,0.935785,
2000-05-17, 03:33:00,VALID,915.659,VALID,0,VALID,97.2841,VALID,0.0339617,VALID,19.8998,VALID,71,VALID,0.841797,
2000-05-17, 03:34:00,VALID,915.678,VALID,0,VALID,97.2065,VALID,0.0169808,VALID,19.9261,VALID,82,VALID,1.15313,
2000-05-17, 03:35:00,VALID,915.672,VALID,0,VALID,96.7602,VALID,0.0339617,VALID,19.9097,VALID,80,VALID,1.2508,
2000-05-17, 03:36:00,VALID,915.673,VALID,0,VALID,96.6928,VALID,0.0509425,VALID,19.906,VALID,81,VALID,1.22656,